456P/PanSTARRS (2025)

Japanese version
Home page
Updated on March 24, 2025

---------------------------------------------------------------------

* Profile

* Orbital Elements

Epoch 2025 May 5.0 TT = JDT 2460800.5
T 2025 Apr. 15.01999 TT                                 Pike
q   2.8022486            (2000.0)            P               Q
n   0.17460815     Peri.  233.02139     -0.41000385     -0.87414087
a   3.1702466      Node   243.14771     +0.90175336     -0.34565967
e   0.1160787      Incl.   16.96569     +0.13688578     -0.34117025
P   5.64
From 59 observations 2012 Aug. 18-2025 Feb. 4, mean residual 0".1.

* Magnitudes Graph

        H = 17.7  G = 0.15

---------------------------------------------------------------------

The orbital elements are published on M.P.E.C. 2025-C143.
The magnitudes graphs are made with Comet for Windows.

---------------------------------------------------------------------

Copyright(C) Seiichi Yoshida (comet@aerith.net). All rights reserved.